• In Netherlands
  • List of Countries
  • For 7 days
  • Water Temperature
  • Satellite Maps
  • Weather Map
  • Weather Widgets
  • user-avatar
    Login

    Hourly Weather Mingachevir

    Today, 16 January, Monday

    Time Temperature Precipitation Wind Pressure Humidity
    00:00 +2°C° 0 mm 1 mps 756 mmHg 90%
    01:00 +2°C° 0 mm 1 mps 756 mmHg 90%
    02:00 +1°C° 0 mm 0 mps 756 mmHg 90%
    03:00 +1°C° 0 mm 0 mps 756 mmHg 88%
    04:00 +1°C° 0 mm 0 mps 756 mmHg 88%
    05:00 +1°C° 0 mm 0 mps 756 mmHg 88%
    06:00 +1°C° 0 mm 0 mps 757 mmHg 87%
    07:00 +2°C° 0 mm 0 mps 757 mmHg 81%
    08:00 +3°C° 0 mm 0 mps 757 mmHg 75%
    09:00 +5°C° 0 mm 0 mps 757 mmHg 64%
    10:00 +7°C° 0 mm 1 mps 757 mmHg 58%
    11:00 +8°C° 0 mm 1 mps 757 mmHg 53%
    12:00 +9°C° 0 mm 1 mps 757 mmHg 48%
    13:00 +10°C° 0 mm 1 mps 757 mmHg 47%
    14:00 +10°C° 0 mm 1 mps 756 mmHg 47%
    15:00 +10°C° 0 mm 1 mps 756 mmHg 46%
    16:00 +8°C° 0 mm 1 mps 757 mmHg 54%
    17:00 +6°C° 0 mm 1 mps 757 mmHg 61%
    18:00 +5°C° 0 mm 1 mps 758 mmHg 69%
    19:00 +4°C° 0 mm 1 mps 758 mmHg 70%
    20:00 +4°C° 0 mm 1 mps 758 mmHg 72%
    21:00 +4°C° 0 mm 1 mps 758 mmHg 73%
    22:00 +4°C° 0 mm 1 mps 759 mmHg 74%
    23:00 +3°C° 0 mm 1 mps 759 mmHg 74%

    Tomorrow, 17 January, Tuesday

    Time Temperature Precipitation Wind Pressure Humidity
    00:00 +3°C° 0 mm 1 mps 759 mmHg 75%
    01:00 +3°C° 0 mm 1 mps 759 mmHg 76%
    02:00 +3°C° 0 mm 1 mps 759 mmHg 77%
    03:00 +2°C° 0 mm 1 mps 759 mmHg 78%
    04:00 +2°C° 0 mm 1 mps 759 mmHg 79%
    05:00 +1°C° 0 mm 0 mps 759 mmHg 80%
    06:00 +1°C° 0 mm 0 mps 759 mmHg 81%
    07:00 +2°C° 0 mm 0 mps 759 mmHg 74%
    08:00 +4°C° 0 mm 0 mps 759 mmHg 67%
    09:00 +5°C° 0 mm 0 mps 759 mmHg 60%
    10:00 +7°C° 0 mm 1 mps 759 mmHg 56%
    11:00 +8°C° 0 mm 1 mps 759 mmHg 53%
    12:00 +10°C° 0 mm 1 mps 758 mmHg 50%
    13:00 +10°C° 0 mm 1 mps 758 mmHg 49%
    14:00 +10°C° 0 mm 1 mps 758 mmHg 49%
    15:00 +10°C° 0 mm 1 mps 758 mmHg 48%
    16:00 +8°C° 0 mm 1 mps 758 mmHg 56%
    17:00 +5°C° 0 mm 0 mps 758 mmHg 64%
    18:00 +4°C° 0 mm 0 mps 758 mmHg 72%
    19:00 +4°C° 0 mm 1 mps 758 mmHg 74%
    20:00 +4°C° 0 mm 1 mps 759 mmHg 76%
    21:00 +4°C° 0 mm 1 mps 759 mmHg 78%
    22:00 +4°C° 0 mm 1 mps 759 mmHg 81%
    23:00 +3°C° 0 mm 1 mps 759 mmHg 83%

    Day after tomorrow, 18 January, Wednesday

    Time Temperature Precipitation Wind Pressure Humidity
    00:00 +3°C° 0 mm 1 mps 759 mmHg 86%
    01:00 +3°C° 0 mm 1 mps 759 mmHg 86%
    02:00 +2°C° 0 mm 1 mps 759 mmHg 87%
    03:00 +1°C° 0 mm 0 mps 759 mmHg 88%
    04:00 +1°C° 0 mm 0 mps 759 mmHg 89%
    05:00 +1°C° 0 mm 0 mps 759 mmHg 89%
    06:00 0°C° 0 mm 0 mps 759 mmHg 89%
    07:00 +2°C° 0 mm 0 mps 759 mmHg 85%
    08:00 +3°C° 0 mm 0 mps 759 mmHg 81%
    09:00 +6°C° 0 mm 1 mps 759 mmHg 77%
    10:00 +7°C° 0 mm 1 mps 759 mmHg 72%
    11:00 +8°C° 0 mm 1 mps 758 mmHg 68%
    12:00 +9°C° 0 mm 1 mps 758 mmHg 63%
    13:00 +9°C° 0 mm 1 mps 758 mmHg 63%
    14:00 +10°C° 0 mm 1 mps 758 mmHg 62%
    15:00 +10°C° 0 mm 1 mps 758 mmHg 62%
    16:00 +8°C° 0 mm 1 mps 758 mmHg 70%
    17:00 +7°C° 0 mm 1 mps 758 mmHg 78%
    18:00 +5°C° 0 mm 1 mps 759 mmHg 86%
    19:00 +5°C° 0 mm 1 mps 759 mmHg 88%
    20:00 +5°C° 0 mm 1 mps 759 mmHg 90%
    21:00 +5°C° 0 mm 1 mps 759 mmHg 93%
    22:00 +5°C° 0 mm 1 mps 759 mmHg 93%
    23:00 +4°C° 0 mm 1 mps 759 mmHg 94%

    19 January, Thursday

    Time Temperature Precipitation Wind Pressure Humidity
    00:00 +4°C° 0 mm 1 mps 759 mmHg 95%
    01:00 +4°C° 0 mm 1 mps 759 mmHg 96%
    02:00 +3°C° 0 mm 0 mps 759 mmHg 96%
    03:00 +3°C° 0 mm 0 mps 759 mmHg 96%
    04:00 +4°C° 0 mm 1 mps 759 mmHg 96%
    05:00 +4°C° 0 mm 1 mps 759 mmHg 96%
    06:00 +4°C° 0 mm 1 mps 759 mmHg 96%
    07:00 +5°C° 0 mm 1 mps 759 mmHg 92%
    08:00 +5°C° 0 mm 1 mps 759 mmHg 88%
    09:00 +6°C° 0 mm 1 mps 760 mmHg 84%
    10:00 +7°C° 0 mm 1 mps 759 mmHg 75%
    11:00 +8°C° 0 mm 2 mps 759 mmHg 67%
    12:00 +9°C° 0 mm 2 mps 758 mmHg 58%
    13:00 +9°C° 0 mm 2 mps 758 mmHg 55%
    14:00 +9°C° 0 mm 2 mps 758 mmHg 52%
    15:00 +10°C° 0 mm 2 mps 758 mmHg 49%
    16:00 +8°C° 0 mm 2 mps 758 mmHg 55%
    17:00 +7°C° 0 mm 1 mps 759 mmHg 61%
    18:00 +6°C° 0 mm 1 mps 759 mmHg 68%
    19:00 +5°C° 0 mm 1 mps 759 mmHg 70%
    20:00 +5°C° 0 mm 1 mps 760 mmHg 71%
    21:00 +5°C° 0 mm 1 mps 760 mmHg 73%
    22:00 +4°C° 0 mm 1 mps 760 mmHg 75%
    23:00 +4°C° 0 mm 1 mps 760 mmHg 77%

    20 January, Friday

    Time Temperature Precipitation Wind Pressure Humidity
    00:00 +4°C° 0 mm 1 mps 761 mmHg 78%
    01:00 +4°C° 0 mm 1 mps 761 mmHg 82%
    02:00 +4°C° 0 mm 1 mps 761 mmHg 85%
    03:00 +2°C° 0 mm 2 mps 761 mmHg 88%
    04:00 +2°C° 0 mm 2 mps 761 mmHg 90%
    05:00 +3°C° 0 mm 1 mps 762 mmHg 92%
    06:00 +3°C° 0 mm 1 mps 762 mmHg 94%
    07:00 +3°C° 0.1 mm 2 mps 762 mmHg 92%
    08:00 +3°C° 0.1 mm 2 mps 763 mmHg 89%
    09:00 +4°C° 0.1 mm 2 mps 763 mmHg 86%
    10:00 +5°C° 0.1 mm 2 mps 763 mmHg 83%
    11:00 +5°C° 0.1 mm 2 mps 763 mmHg 80%
    12:00 +6°C° 0.1 mm 2 mps 762 mmHg 76%
    13:00 +6°C° 0.1 mm 2 mps 762 mmHg 76%
    14:00 +6°C° 0.1 mm 2 mps 762 mmHg 76%
    15:00 +6°C° 0.1 mm 2 mps 761 mmHg 75%
    16:00 +5°C° 0 mm 2 mps 762 mmHg 79%
    17:00 +6°C° 0 mm 1 mps 762 mmHg 83%
    18:00 +5°C° 0 mm 1 mps 762 mmHg 86%
    19:00 +5°C° 0 mm 1 mps 762 mmHg 88%
    20:00 +4°C° 0 mm 1 mps 763 mmHg 90%
    21:00 +4°C° 0 mm 1 mps 763 mmHg 91%
    22:00 +3°C° 0 mm 1 mps 763 mmHg 92%
    23:00 +3°C° 0 mm 1 mps 763 mmHg 92%

    21 January, Saturday

    Time Temperature Precipitation Wind Pressure Humidity
    00:00 +2°C° 0 mm 0 mps 762 mmHg 93%
    01:00 +2°C° 0 mm 0 mps 762 mmHg 93%
    02:00 +2°C° 0 mm 0 mps 762 mmHg 93%
    03:00 +1°C° 0 mm 0 mps 762 mmHg 94%
    04:00 +2°C° 0 mm 1 mps 762 mmHg 94%
    05:00 +2°C° 0 mm 1 mps 762 mmHg 94%
    06:00 +2°C° 0 mm 1 mps 761 mmHg 95%
    07:00 +3°C° 0 mm 1 mps 762 mmHg 90%
    08:00 +4°C° 0 mm 1 mps 762 mmHg 85%
    09:00 +5°C° 0 mm 1 mps 762 mmHg 81%
    10:00 +6°C° 0 mm 1 mps 761 mmHg 73%
    11:00 +7°C° 0 mm 1 mps 761 mmHg 66%
    12:00 +7°C° 0 mm 2 mps 760 mmHg 58%
    13:00 +7°C° 0 mm 2 mps 760 mmHg 56%
    14:00 +7°C° 0 mm 2 mps 760 mmHg 54%
    15:00 +8°C° 0 mm 2 mps 759 mmHg 52%
    16:00 +7°C° 0 mm 1 mps 760 mmHg 59%
    17:00 +5°C° 0 mm 1 mps 760 mmHg 66%
    18:00 +3°C° 0 mm 0 mps 760 mmHg 73%
    19:00 +2°C° 0 mm 0 mps 761 mmHg 74%
    20:00 +2°C° 0 mm 0 mps 761 mmHg 76%
    21:00 +2°C° 0 mm 0 mps 761 mmHg 78%
    22:00 +1°C° 0 mm 0 mps 761 mmHg 79%
    23:00 +1°C° 0 mm 0 mps 762 mmHg 80%
    Show more